Location: Tierra Monte Subdivision
(35.2092°N, 106.4864°W)
Time: 11:09:18
(UTC+00:00)

Meteor 2-21 - Pass Details

Date: 30 March 2020
Orbit: 935 x 966 km, 82.6° (Epoch: 05 June)

Event Time Altitude Azimuth Distance (km) Brightness Sun altitude
Rises 01:42:50 0° 354° (N) 3,599 7.7 -4.3°
Reaches altitude 10° 01:45:20 10° 356° (N) 2,653 7.0 -4.8°
Maximum altitude 01:51:24 78° 83° (E) 964 4.4 -6.1°
Drops below altitude 10° 01:57:27 10° 170° (S) 2,653 6.6 -7.3°
Sets 01:59:56 0° 171° (S) 3,599 7.3 -7.8°
